| time (UTC) | temp F | wind direction | speed MPH | gust MPH | rain 1hr in | rain 24hr in | rain mn in | humidity % | barometer mb |
| 20260506032209 | 45 | 157 | 0.0 | 0.0 | 0.00 | 0.00 | 0.00 | 64 | 1003.3 |
| 20260506031201 | 45 | 157 | 0.0 | 1.0 | 0.00 | 0.00 | 0.00 | 62 | 1003.1 |
| 20260506030204 | 45 | 157 | 0.0 | 0.0 | 0.00 | 0.00 | 0.00 | 62 | 1002.7 |
| 20260506025131 | 46 | 157 | 0.0 | 0.0 | 0.00 | 0.00 | 0.00 | 60 | 1002.4 |
| 20260506024110 | 46 | 157 | 0.0 | 0.0 | 0.00 | 0.00 | 0.00 | 60 | 1002.2 |
| 20260506023036 | 47 | 157 | 0.0 | 0.0 | 0.00 | 0.00 | 0.00 | 57 | 1001.9 |
| 20260506022006 | 48 | 166 | 0.0 | 7.0 | 0.00 | 0.00 | 0.00 | 56 | 1001.7 |
| 20260506021004 | 48 | 173 | 0.0 | 1.0 | 0.00 | 0.00 | 0.00 | 54 | 1001.6 |
| 20260506013746 | 50 | 221 | 16.0 | 28.0 | 0.00 | 0.00 | 0.00 | 53 | 1001.0 |
| 20260506012721 | 51 | 184 | 18.0 | 27.0 | 0.00 | 0.00 | 0.00 | 49 | 1000.9 |
| 20260506011654 | 53 | 192 | 11.0 | 22.0 | 0.00 | 0.00 | 0.00 | 41 | 1000.7 |
| 20260506010701 | 54 | 189 | 7.0 | 19.0 | 0.00 | 0.00 | 0.00 | 39 | 1000.4 |
| 20260506004511 | 57 | 163 | 0.0 | 9.0 | 0.00 | 0.00 | 0.00 | 28 | 999.7 |
| 20260506001229 | 59 | 224 | 3.0 | 11.0 | 0.00 | 0.00 | 0.00 | 25 | 999.2 |
| 20260505235055 | 60 | 248 | 1.0 | 0.0 | 0.00 | 0.00 | 0.00 | 24 | 999.1 |
| 20260505234045 | 61 | 0 | 4.0 | 1.0 | 0.00 | 0.00 | 0.00 | 23 | 998.9 |
| 20260505233011 | 61 | 247 | 4.0 | 16.0 | 0.00 | 0.00 | 0.00 | 23 | 998.9 |
| 20260505231957 | 61 | 212 | 4.0 | 16.0 | 0.00 | 0.00 | 0.00 | 24 | 999.0 |
| 20260505225906 | 62 | 230 | 7.0 | 15.0 | 0.00 | 0.00 | 0.00 | 24 | 998.9 |
| 20260505224929 | 62 | 219 | 0.0 | 18.0 | 0.00 | 0.00 | 0.00 | 24 | 999.1 |
| 20260505222806 | 61 | 255 | 3.0 | 19.0 | 0.00 | 0.00 | 0.00 | 24 | 999.5 |
| 20260505221806 | 61 | 234 | 3.0 | 19.0 | 0.00 | 0.00 | 0.00 | 25 | 999.6 |
| 20260505220808 | 60 | 215 | 0.0 | 1.0 | 0.00 | 0.00 | 0.00 | 26 | 999.9 |
| 20260505215830 | 60 | 202 | 1.0 | 3.0 | 0.00 | 0.00 | 0.00 | 26 | 1000.1 |
| 20260505214802 | 60 | 251 | 4.0 | 13.0 | 0.00 | 0.00 | 0.00 | 26 | 1000.2 |
| 20260505213756 | 60 | 275 | 4.0 | 15.0 | 0.00 | 0.00 | 0.00 | 27 | 1000.3 |
| 20260505212752 | 60 | 217 | 3.0 | 15.0 | 0.00 | 0.00 | 0.00 | 27 | 1000.6 |
| 20260505211817 | 60 | 209 | 4.0 | 14.0 | 0.00 | 0.00 | 0.00 | 27 | 1000.9 |
| 20260505205621 | 61 | 263 | 1.0 | 12.0 | 0.00 | 0.00 | 0.00 | 25 | 1001.2 |
| 20260505204631 | 60 | 234 | 3.0 | 12.0 | 0.00 | 0.00 | 0.00 | 25 | 1001.3 |
| 20260505203643 | 62 | 0 | 4.0 | 16.0 | 0.00 | 0.00 | 0.00 | 23 | 1001.4 |
| 20260505202644 | 63 | 225 | 6.0 | 18.0 | 0.00 | 0.00 | 0.00 | 23 | 1001.5 |
| 20260505201651 | 61 | 227 | 4.0 | 18.0 | 0.00 | 0.00 | 0.00 | 24 | 1001.6 |
| 20260505200622 | 60 | 248 | 1.0 | 0.0 | 0.00 | 0.00 | 0.00 | 25 | 1001.8 |
| 20260505195559 | 60 | 0 | 6.0 | 16.0 | 0.00 | 0.00 | 0.00 | 25 | 1001.9 |
| 20260505194615 | 60 | 222 | 1.0 | 13.0 | 0.00 | 0.00 | 0.00 | 25 | 1001.9 |
| 20260505193612 | 61 | 228 | 7.0 | 17.0 | 0.00 | 0.00 | 0.00 | 24 | 1001.9 |
| 20260505192620 | 61 | 252 | 3.0 | 14.0 | 0.00 | 0.00 | 0.00 | 22 | 1001.9 |
| 20260505191637 | 61 | 0 | 4.0 | 14.0 | 0.00 | 0.00 | 0.00 | 23 | 1002.2 |
| 20260505190629 | 60 | 227 | 0.0 | 14.0 | 0.00 | 0.00 | 0.00 | 24 | 1002.2 |
| 20260505185649 | 59 | 0 | 3.0 | 9.0 | 0.00 | 0.00 | 0.00 | 24 | 1002.3 |
| 20260505184645 | 61 | 0 | 1.0 | 11.0 | 0.00 | 0.00 | 0.00 | 23 | 1002.4 |
| 20260505182517 | 60 | 173 | 3.0 | 11.0 | 0.00 | 0.00 | 0.00 | 24 | 1002.5 |
| 20260505181522 | 60 | 256 | 1.0 | 10.0 | 0.00 | 0.00 | 0.00 | 24 | 1002.7 |
| 20260505180504 | 59 | 242 | 0.0 | 8.0 | 0.00 | 0.00 | 0.00 | 24 | 1002.6 |
| 20260505174408 | 59 | 177 | 0.0 | 0.0 | 0.00 | 0.00 | 0.00 | 27 | 1002.6 |
| 20260505173417 | 58 | 215 | 0.0 | 9.0 | 0.00 | 0.00 | 0.00 | 27 | 1002.7 |
| 20260505172406 | 58 | 0 | 1.0 | 10.0 | 0.00 | 0.00 | 0.00 | 27 | 1002.7 |
| 20260505171420 | 57 | 244 | 3.0 | 12.0 | 0.00 | 0.00 | 0.00 | 28 | 1002.7 |
| 20260505170427 | 56 | 0 | 0.0 | 5.0 | 0.00 | 0.00 | 0.00 | 30 | 1002.9 |
| 20260505164347 | 55 | 0 | 0.0 | 8.0 | 0.00 | 0.00 | 0.00 | 30 | 1002.9 |
| 20260505162209 | 54 | 250 | 0.0 | 1.0 | 0.00 | 0.00 | 0.00 | 30 | 1003.2 |
| 20260505152855 | 52 | 0 | 0.0 | 0.0 | 0.00 | 0.00 | 0.00 | 33 | 1003.5 |
| 20260505150719 | 51 | 0 | 0.0 | 1.0 | 0.00 | 0.00 | 0.00 | 35 | 1003.4 |
| 20260505140608 | 48 | 0 | 0.0 | 7.0 | 0.00 | 0.00 | 0.00 | 39 | 1003.9 |
| 20260505123044 | 44 | 0 | 0.0 | 1.0 | 0.00 | 0.00 | 0.00 | 45 | 1004.5 |
| 20260505122045 | 44 | 0 | 0.0 | 0.0 | 0.00 | 0.00 | 0.00 | 44 | 1004.5 |
| 20260505115921 | 44 | 0 | 0.0 | 0.0 | 0.00 | 0.00 | 0.00 | 44 | 1004.4 |
| 20260505114859 | 43 | 0 | 0.0 | 0.0 | 0.00 | 0.00 | 0.00 | 43 | 1004.5 |
| 20260505113829 | 43 | 0 | 0.0 | 0.0 | 0.00 | 0.00 | 0.00 | 43 | 1004.6 |
| 20260505112823 | 43 | 0 | 0.0 | 0.0 | 0.00 | 0.00 | 0.00 | 42 | 1004.6 |
| 20260505110728 | 45 | 0 | 0.0 | 0.0 | 0.00 | 0.00 | 0.00 | 40 | 1004.4 |
| 20260505101632 | 46 | 0 | 0.0 | 0.0 | 0.00 | 0.00 | 0.00 | 35 | 1004.1 |
| 20260505100654 | 46 | 0 | 0.0 | 0.0 | 0.00 | 0.00 | 0.00 | 34 | 1003.8 |
| 20260505094507 | 44 | 0 | 0.0 | 0.0 | 0.00 | 0.00 | 0.00 | 35 | 1003.7 |
| 20260505093503 | 46 | 0 | 0.0 | 0.0 | 0.00 | 0.00 | 0.00 | 33 | 1003.6 |
| 20260505092444 | 47 | 0 | 0.0 | 0.0 | 0.00 | 0.00 | 0.00 | 33 | 1003.6 |
| 20260505091437 | 47 | 0 | 0.0 | 1.0 | 0.00 | 0.00 | 0.00 | 32 | 1003.7 |
| 20260505090421 | 48 | 0 | 0.0 | 0.0 | 0.00 | 0.00 | 0.00 | 32 | 1003.6 |
| 20260505085356 | 46 | 5 | 0.0 | 9.0 | 0.00 | 0.00 | 0.00 | 33 | 1003.5 |
| 20260505084409 | 46 | 28 | 0.0 | 0.0 | 0.00 | 0.00 | 0.00 | 33 | 1003.8 |
| 20260505083418 | 47 | 26 | 0.0 | 0.0 | 0.00 | 0.00 | 0.00 | 31 | 1003.7 |
| 20260505082343 | 49 | 0 | 0.0 | 0.0 | 0.00 | 0.00 | 0.00 | 30 | 1003.7 |
| 20260505081406 | 49 | 0 | 0.0 | 0.0 | 0.00 | 0.00 | 0.00 | 29 | 1003.6 |
| 20260505080339 | 50 | 0 | 0.0 | 0.0 | 0.00 | 0.00 | 0.00 | 29 | 1003.6 |
| 20260505075346 | 51 | 269 | 0.0 | 5.0 | 0.00 | 0.00 | 0.00 | 28 | 1003.8 |
| 20260505074324 | 51 | 272 | 0.0 | 1.0 | 0.00 | 0.00 | 0.00 | 28 | 1003.6 |
| 20260505071034 | 52 | 257 | 3.0 | 13.0 | 0.00 | 0.00 | 0.00 | 26 | 1003.7 |
| 20260505070003 | 52 | 234 | 3.0 | 11.0 | 0.00 | 0.00 | 0.00 | 25 | 1003.6 |
| 20260505064956 | 52 | 252 | 4.0 | 12.0 | 0.00 | 0.00 | 0.00 | 25 | 1003.7 |
| 20260505063928 | 52 | 226 | 4.0 | 14.0 | 0.00 | 0.00 | 0.00 | 24 | 1003.7 |
| 20260505062935 | 53 | 246 | 4.0 | 14.0 | 0.00 | 0.00 | 0.00 | 24 | 1003.6 |
| 20260505061942 | 53 | 240 | 4.0 | 14.0 | 0.00 | 0.00 | 0.00 | 24 | 1003.5 |
| 20260505060956 | 53 | 240 | 4.0 | 18.0 | 0.00 | 0.00 | 0.00 | 24 | 1003.5 |
| 20260505055940 | 54 | 238 | 9.0 | 18.0 | 0.00 | 0.00 | 0.00 | 24 | 1003.7 |
| 20260505054926 | 54 | 231 | 10.0 | 20.0 | 0.00 | 0.00 | 0.00 | 24 | 1003.7 |
| 20260505053924 | 53 | 231 | 10.0 | 20.0 | 0.00 | 0.00 | 0.00 | 24 | 1003.5 |
| 20260505052905 | 50 | 224 | 0.0 | 10.0 | 0.00 | 0.00 | 0.00 | 29 | 1003.5 |
| 20260505051850 | 47 | 217 | 0.0 | 0.0 | 0.00 | 0.00 | 0.00 | 33 | 1003.7 |
| 20260505041752 | 50 | 217 | 0.0 | 0.0 | 0.00 | 0.00 | 0.00 | 33 | 1003.0 |
| 20260505040719 | 51 | 217 | 0.0 | 0.0 | 0.00 | 0.00 | 0.00 | 31 | 1002.9 |
| 20260505035646 | 51 | 217 | 0.0 | 0.0 | 0.00 | 0.00 | 0.00 | 31 | 1002.8 |
| 20260505034647 | 51 | 217 | 0.0 | 0.0 | 0.00 | 0.00 | 0.00 | 31 | 1002.6 |
| 20260505033657 | 51 | 217 | 0.0 | 0.0 | 0.00 | 0.00 | 0.00 | 31 | 1002.5 |